This demonstration page uses our WeatherBlox Daily Observations layout. Learn more.

Hourly Observations for December 7, 2016

Temp ( °F °C ) Dew Point ( °F °C ) Humidity (%) Winds ( mph kmh ) Pressure ( in mb ) Visibility ( mi km ) Precip ( " mm )
12:54 am 00:54 Cloudy 24 -4.4 10 -12.2 55 55 NNW 10 17 30.23 1024 10 16.0934 0 0
1:54 am 01:54 Cloudy 23 -5 9 -12.8 55 55 NNW 13 20 30.24 1024 10 16.0934 0 0
2:54 am 02:54 Mostly Cloudy 22 -5.6 10 -12.2 60 60 N 8 13 30.24 1024 10 16.0934 0 0
3:54 am 03:54 Clear 21 -6.1 9 -12.8 59 59 NNW 14 22 30.27 1025 10 16.0934 0 0
4:54 am 04:54 Clear 19 -7.2 9 -12.8 65 65 NNW 12 19 30.28 1026 10 16.0934 0 0
5:54 am 05:54 Partly Cloudy 19 -7.2 8 -13.3 62 62 NNW 13 20 30.29 1026 10 16.0934 0 0
6:54 am 06:54 Cloudy 19 -7.2 7 -13.9 59 59 NNW 14 22 30.32 1027 10 16.0934 0 0
7:54 am 07:54 Cloudy 19 -7.2 7 -13.9 59 59 NNW 12 19 30.32 1027 10 16.0934 0 0
8:54 am 08:54 Cloudy 19 -7.2 7 -13.9 59 59 NNW 9 15 30.37 1029 10 16.0934 0 0
9:54 am 09:54 Partly Cloudy 20 -6.7 7 -13.9 57 57 WNW 12 19 30.4 1030 10 16.0934 0 0
10:54 am 10:54 Cloudy 21 -6.1 6 -14.4 52 52 NW 13 20 30.42 1030 10 16.0934 0 0
11:54 am 11:54 Cloudy 22 -5.6 6 -14.4 50 50 NW 16 26 30.41 1030 10 16.0934 0 0
12:54 pm 12:54 Cloudy 23 -5 6 -14.4 48 48 WNW 14 22 30.4 1030 10 16.0934 0 0
1:54 pm 13:54 Cloudy 24 -4.4 5 -15 44 44 NNW 16 26 30.4 1029 10 16.0934 0 0
2:54 pm 14:54 Mostly Sunny 26 -3.3 5 -15 40 40 NW 17 28 30.4 1029 10 16.0934 0 0
3:54 pm 15:54 Sunny 26 -3.3 5 -15 40 40 NW 16 26 30.42 1030 10 16.0934 0 0
4:54 pm 16:54 Sunny 24 -4.4 5 -15 44 44 NW 10 17 30.44 1031 10 16.0934 0 0
5:54 pm 17:54 Clear 22 -5.6 6 -14.4 50 50 NW 8 13 30.46 1032 10 16.0934 0 0
6:54 pm 18:54 Clear 20 -6.7 6 -14.4 55 55 NW 10 17 30.49 1033 10 16.0934 0 0
7:54 pm 19:54 Clear 19 -7.2 5 -15 54 54 WNW 9 15 30.52 1034 10 16.0934 0 0
8:54 pm 20:54 Clear 19 -7.2 5 -15 54 54 WNW 14 22 30.53 1034 10 16.0934 0 0
9:54 pm 21:54 Clear 18 -7.8 5 -15 57 57 NW 16 26 30.54 1034 10 16.0934 0 0
10:54 pm 22:54 Clear 17 -8.3 5 -15 59 59 NW 16 26 30.56 1035 10 16.0934 0 0
11:54 pm 23:54 Clear 16 -8.9 4 -15.6 59 59 NW 18 30 30.58 1035 10 16.0934 0 0

Powered by AerisWeather